Location: Shenandoah County Park
(38.9356°N, 78.4524°W)
Time: 17:32:22
(UTC-05:00)

N. Korean satellite - Visible Passes

Search period start: 01 December 2021 00:00
Search period end: 11 December 2021 00:00
Orbit: 447 x 495 km, 97.3° (Epoch: 01 December)

Date Brightness Start Highest point End Pass type
(mag) Time Alt. Az. Time Alt. Az. Time Alt. Az.
01 Dec 9.8 04:29:52 10° ENE 04:31:15 12° E 04:32:38 10° ESE visible
01 Dec 7.1 06:01:31 10° N 06:04:32 30° WNW 06:07:32 10° SW visible
02 Dec 6.2 05:32:45 10° N 05:36:09 81° W 05:39:30 10° SSW visible
02 Dec 9.7 17:39:46 10° SW 17:41:59 16° W 17:44:11 10° NW visible
03 Dec 7.9 05:04:27 10° NNE 05:07:37 36° E 05:10:45 10° SSE visible
03 Dec 8.4 06:39:30 10° NW 06:40:25 11° WNW 06:41:20 10° W visible
04 Dec 9.5 04:36:55 10° NE 04:38:57 15° E 04:41:00 10° SE visible
04 Dec 7.4 06:09:21 10° NNW 06:12:09 24° WNW 06:14:55 10° SW visible
05 Dec 6.3 05:40:24 10° N 05:43:44 62° WNW 05:47:03 10° SSW visible
05 Dec 10.0 17:48:08 10° WSW 17:49:39 12° W 17:51:09 10° WNW visible
06 Dec 7.4 05:11:56 10° NNE 05:15:12 47° E 05:18:28 10° S visible
06 Dec 8.9 17:17:53 10° SSW 17:20:57 28° W 17:24:00 10° NW visible
07 Dec 9.2 04:44:03 10° NE 04:46:33 19° E 04:49:02 10° SE visible
07 Dec 7.7 06:17:08 10° NNW 06:19:38 20° WNW 06:22:08 10° WSW visible
08 Dec 6.6 05:47:57 10° N 05:51:13 47° WNW 05:54:29 10° SSW visible
09 Dec 6.8 05:19:19 10° NNE 05:22:41 62° E 05:26:03 10° S visible
09 Dec 9.4 17:25:39 10° SSW 17:28:27 22° W 17:31:14 10° NW visible
10 Dec 8.8 04:51:54 14° NE 04:54:01 24° E 04:56:50 10° SSE visible
10 Dec 8.0 06:26:03 14° NW 06:27:01 16° WNW 06:29:09 10° WSW visible
